Tracking 23758 objects as of 27-Oct-2021
HD Live streaming from Space Station
objects crossing your sky now

NARSSCUBE-1

Track NARSSCUBE-1 now!
10-day predictions


NORAD ID: 44792
Int'l Code: 1998-067QV
Perigee: 328.9 km
Apogee: 338.2 km
Inclination: 51.6 °
Period: 91.1 minutes
Semi major axis: 6704 km
RCS: Unknown
Launch date: November 20, 1998
Source: Egypt (EGYP)
Launch site: TYURATAM MISSILE AND SPACE COMPLEX (TTMTR)
aabbcc
Your satellite tracking list
Your tracking list is empty




NASA's NSSDC Master Catalog

Two Line Element Set (TLE):
1 44792U 98067QX  21299.42226285  .00123813  00000-0  60436-3 0  9990
2 44792  51.6348   0.7207 0006894  26.5106 333.6247 15.81423986110162
Source of the keplerian elements: AFSPC